DW8050 Weather Reports


Display with metric or nautical units.
time (UTC)temp
F
wind
direction
speed
MPH
gust
MPH
rain 1hr
in
rain 24hr
in
rain mn
in
humidity
%
barometer
mb
20260506134017 43 171 12.0 17.0 0.02 0.09 0.02 90 1008.9
20260506133520 43 203 12.0 17.0 0.01 0.08 0.01 89 1008.8
20260506133031 43 180 11.0 16.0 0.01 0.08 0.01 89 1008.8
20260506132522 43 196 10.0 15.0 0.01 0.08 0.01 89 1009.0
20260506132016 43 169 9.0 12.0 0.01 0.08 0.01 89 1008.8
20260506131541 43 169 7.0 12.0 0.00 0.07 0.00 89 1008.9
20260506131017 43 180 8.0 12.0 0.00 0.07 0.00 89 1008.9
20260506130519 43 198 8.0 12.0 0.00 0.07 0.00 89 1008.8
20260506130037 43 211 8.0 12.0 0.00 0.07 0.00 88 1008.8
20260506125516 43 214 7.0 13.0 0.00 0.07 0.00 89 1009.0
20260506125019 43 201 9.0 16.0 0.00 0.07 0.00 88 1008.9
20260506124530 43 210 8.0 16.0 0.00 0.07 0.00 89 1009.1
20260506124016 43 188 9.0 17.0 0.00 0.07 0.00 89 1009.1
20260506123516 44 167 10.0 17.0 0.00 0.07 0.00 89 1009.0
20260506123034 44 175 13.0 17.0 0.00 0.07 0.00 88 1008.8
20260506122517 44 173 12.0 17.0 0.00 0.07 0.00 88 1008.8
20260506122017 44 156 12.0 17.0 0.00 0.07 0.00 88 1008.6
20260506121533 44 182 11.0 16.0 0.00 0.07 0.00 88 1008.7
20260506121016 44 160 10.0 16.0 0.00 0.07 0.00 87 1008.6
20260506120517 44 156 11.0 15.0 0.00 0.07 0.00 86 1008.7
20260506120035 45 161 9.0 14.0 0.00 0.07 0.00 85 1008.8
20260506115519 45 185 9.0 11.0 0.00 0.07 0.00 84 1008.7
20260506115017 45 188 8.0 11.0 0.00 0.07 0.00 84 1008.7
20260506114535 45 209 8.0 12.0 0.00 0.07 0.00 82 1008.8
20260506114017 45 197 8.0 12.0 0.00 0.07 0.00 81 1008.9
20260506113517 45 197 9.0 11.0 0.00 0.07 0.00 81 1009.0
20260506113030 46 209 7.0 10.0 0.00 0.07 0.00 81 1008.9
20260506112516 46 207 7.0 10.0 0.00 0.07 0.00 80 1008.9
20260506112016 46 190 7.0 9.0 0.00 0.07 0.00 79 1008.9
20260506111534 46 171 6.0 9.0 0.00 0.07 0.00 78 1009.0
20260506111017 47 187 6.0 10.0 0.00 0.07 0.00 76 1008.9
20260506110517 47 209 7.0 10.0 0.00 0.07 0.00 76 1008.9
20260506110034 47 225 6.0 11.0 0.00 0.07 0.00 76 1008.9
20260506105516 47 218 7.0 11.0 0.00 0.07 0.00 76 1008.9
20260506105021 47 220 6.0 11.0 0.00 0.07 0.00 77 1008.8
20260506104531 47 219 7.0 11.0 0.00 0.07 0.00 77 1008.7
20260506104017 47 217 6.0 11.0 0.00 0.07 0.00 78 1008.6
20260506103517 47 211 6.0 10.0 0.00 0.07 0.00 78 1008.6
20260506103043 47 211 7.0 10.0 0.00 0.07 0.00 78 1008.6
20260506102517 47 217 7.0 10.0 0.00 0.07 0.00 79 1008.5
20260506102017 47 219 7.0 9.0 0.00 0.07 0.00 80 1008.4
20260506101548 47 208 5.0 9.0 0.00 0.07 0.00 81 1008.4
20260506101016 47 213 6.0 11.0 0.00 0.07 0.00 80 1008.2
20260506100516 48 207 7.0 12.0 0.00 0.07 0.00 78 1008.1
20260506100045 48 222 8.0 12.0 0.00 0.07 0.00 77 1008.1
20260506095517 47 219 6.0 10.0 0.00 0.07 0.00 77 1008.0
20260506095022 47 212 6.0 11.0 0.00 0.07 0.00 76 1007.8
20260506094534 48 205 6.0 11.0 0.00 0.07 0.00 74 1008.0
20260506094022 48 213 6.0 10.0 0.00 0.07 0.00 74 1008.0
20260506093517 48 192 7.0 14.0 0.00 0.07 0.00 77 1007.9
20260506093040 48 211 7.0 14.0 0.00 0.07 0.00 73 1007.8
20260506092517 48 216 8.0 13.0 0.00 0.07 0.00 73 1007.7
20260506092019 48 198 7.0 13.0 0.00 0.07 0.00 78 1007.8
20260506091535 48 221 7.0 10.0 0.00 0.07 0.00 84 1007.7
20260506091017 48 221 7.0 11.0 0.00 0.07 0.00 83 1007.7
20260506090517 48 223 5.0 11.0 0.00 0.07 0.00 84 1007.7
20260506090035 48 230 5.0 10.0 0.00 0.07 0.00 84 1007.9
20260506085517 48 235 5.0 8.0 0.00 0.07 0.00 84 1007.9
20260506085018 48 240 5.0 8.0 0.00 0.07 0.00 83 1007.8
20260506084554 48 240 6.0 8.0 0.00 0.07 0.00 82 1007.8
20260506084017 48 248 5.0 8.0 0.00 0.07 0.00 82 1007.9
20260506083517 48 235 5.0 8.0 0.00 0.07 0.00 81 1008.0
20260506083035 48 223 5.0 7.0 0.00 0.07 0.00 81 1008.1
20260506082521 48 241 4.0 7.0 0.00 0.07 0.00 81 1008.2
20260506082017 48 244 4.0 8.0 0.00 0.07 0.00 80 1008.2
20260506081541 49 237 5.0 8.0 0.00 0.07 0.00 79 1008.3
20260506081017 49 247 5.0 8.0 0.00 0.07 0.00 79 1008.2
20260506080517 49 252 5.0 9.0 0.00 0.07 0.00 79 1008.2
20260506073517 49 240 6.0 9.0 0.00 0.07 0.00 79 1007.6
20260506073043 49 246 6.0 9.0 0.00 0.07 0.00 79 1007.7
20260506072517 49 256 6.0 10.0 0.00 0.07 0.00 78 1007.7
20260506072017 49 245 6.0 13.0 0.00 0.07 0.00 78 1007.7
20260506071537 50 239 9.0 13.0 0.00 0.07 0.00 77 1007.7
20260506071019 50 251 7.0 11.0 0.00 0.07 0.00 77 1007.7
20260506070517 50 252 5.0 10.0 0.00 0.07 0.00 77 1007.8
20260506062517 50 247 8.0 11.0 0.00 0.07 0.00 71 1006.8
20260506062017 50 223 7.0 10.0 0.00 0.07 0.00 71 1006.8
20260506061531 50 237 6.0 10.0 0.00 0.07 0.00 70 1006.9
20260506061017 50 232 7.0 10.0 0.00 0.07 0.00 69 1007.0
20260506060518 50 240 6.0 9.0 0.00 0.07 0.00 69 1007.0
20260506051015 52 217 4.0 11.0 0.00 0.07 0.00 61 1006.9
20260506050515 52 267 5.0 11.0 0.00 0.07 0.00 56 1006.7
20260506045015 53 281 7.0 13.0 0.00 0.07 0.00 54 1006.5
20260506044604 53 269 8.0 13.0 0.00 0.07 0.00 54 1006.5
20260506044016 53 269 5.0 10.0 0.00 0.07 0.00 55 1006.3
20260506043516 53 275 5.0 9.0 0.00 0.07 0.00 53 1006.2
20260506043032 53 276 6.0 9.0 0.00 0.07 0.00 54 1006.2
20260506042517 53 266 6.0 10.0 0.00 0.07 0.00 55 1006.2
20260506042021 53 252 5.0 12.0 0.00 0.07 0.00 55 1006.1
20260506041531 54 271 7.0 12.0 0.00 0.07 0.00 55 1006.1
20260506041021 53 265 7.0 13.0 0.00 0.07 0.00 55 1006.1
20260506040515 53 276 8.0 13.0 0.00 0.07 0.00 55 1006.0
20260506040031 54 258 9.0 13.0 0.00 0.07 0.00 55 1005.9
20260506035515 54 263 8.0 13.0 0.00 0.07 0.07 55 1005.9
20260506035015 54 257 7.0 12.0 0.00 0.07 0.07 55 1005.8
20260506034559 54 254 9.0 14.0 0.00 0.07 0.07 55 1005.7
20260506034016 54 261 8.0 14.0 0.00 0.07 0.07 55 1005.6
20260506033515 54 288 8.0 11.0 0.00 0.07 0.07 55 1005.6
20260506033032 54 277 8.0 10.0 0.00 0.07 0.07 55 1005.5
20260506032517 53 274 4.0 9.0 0.00 0.07 0.07 60 1005.6
20260506032016 53 269 3.0 9.0 0.00 0.07 0.07 65 1005.4
20260506031531 54 251 5.0 10.0 0.00 0.07 0.07 59 1005.5
20260506031015 54 259 4.0 13.0 0.00 0.07 0.07 61 1005.3
20260506030512 55 260 7.0 17.0 0.00 0.07 0.07 56 1005.3
20260506030030 55 277 11.0 19.0 0.00 0.07 0.07 51 1005.2
20260506025516 55 263 11.0 19.0 0.00 0.07 0.07 52 1005.0
20260506025015 55 257 10.0 18.0 0.00 0.07 0.07 53 1005.1
20260506024533 55 264 11.0 18.0 0.00 0.07 0.07 56 1005.2
20260506024015 55 247 7.0 16.0 0.00 0.07 0.07 64 1005.2
20260506023516 55 244 8.0 18.0 0.00 0.07 0.07 65 1005.4
20260506023035 56 263 12.0 18.0 0.00 0.07 0.07 52 1005.2
20260506022513 56 264 10.0 16.0 0.00 0.07 0.07 53 1005.1
20260506022016 56 254 11.0 16.0 0.00 0.07 0.07 55 1004.9
20260506021533 56 259 10.0 16.0 0.00 0.07 0.07 58 1004.8
20260506021016 56 254 9.0 15.0 0.00 0.07 0.07 58 1004.7
20260506020515 56 273 6.0 13.0 0.00 0.07 0.07 66 1004.7
20260506020031 56 260 9.0 13.0 0.00 0.07 0.07 67 1004.8
20260506015519 56 250 9.0 12.0 0.00 0.07 0.07 70 1004.6
20260506015016 56 245 8.0 12.0 0.00 0.07 0.07 70 1004.6
20260506014533 56 244 8.0 12.0 0.00 0.07 0.07 69 1004.5
20260506014015 56 247 7.0 12.0 0.00 0.07 0.07 69 1004.4
20260506013515 57 252 6.0 14.0 0.00 0.07 0.07 69 1004.3
20260506013038 57 259 6.0 14.0 0.00 0.07 0.07 68 1004.2
20260506012516 57 272 8.0 17.0 0.00 0.07 0.07 66 1004.1
20260506012015 58 251 10.0 19.0 0.00 0.07 0.07 65 1004.0
20260506011532 58 252 10.0 19.0 0.00 0.07 0.07 66 1003.9
20260506011018 58 244 13.0 19.0 0.00 0.07 0.07 64 1003.9
20260506010516 58 259 13.0 18.0 0.00 0.07 0.07 65 1003.7
20260506010032 58 253 14.0 18.0 0.00 0.07 0.07 64 1003.6
20260506005515 58 258 12.0 16.0 0.00 0.07 0.07 65 1003.5
20260506005016 58 238 13.0 16.0 0.00 0.07 0.07 65 1003.4
20260506004556 58 249 11.0 15.0 0.00 0.07 0.07 67 1003.2
20260506004016 58 238 10.0 15.0 0.00 0.07 0.07 68 1003.1
20260506003516 58 249 9.0 14.0 0.00 0.07 0.07 69 1003.1
20260506003041 58 240 10.0 12.0 0.00 0.07 0.07 68 1002.9
20260506002515 58 227 9.0 13.0 0.00 0.07 0.07 67 1002.7
20260506002016 58 252 8.0 13.0 0.00 0.07 0.07 67 1002.4
20260506001535 58 251 10.0 16.0 0.00 0.07 0.07 66 1002.4
20260506001016 59 244 11.0 17.0 0.00 0.07 0.07 65 1002.3
20260506000516 59 250 11.0 17.0 0.00 0.07 0.07 65 1002.3
20260506000032 58 257 8.0 13.0 0.00 0.07 0.07 67 1002.4
20260505235516 59 268 7.0 14.0 0.00 0.07 0.07 67 1002.5
20260505235015 59 308 7.0 15.0 0.00 0.07 0.07 65 1002.5
20260505234546 60 290 8.0 17.0 0.00 0.07 0.07 63 1002.6
20260505234022 60 292 10.0 17.0 0.00 0.07 0.07 62 1002.4
20260505233520 60 295 9.0 17.0 0.00 0.07 0.07 66 1002.4
20260505233037 60 277 7.0 18.0 0.00 0.07 0.07 68 1002.3
20260505232516 61 281 11.0 18.0 0.00 0.07 0.07 66 1002.2
20260505232016 61 294 9.0 18.0 0.00 0.07 0.07 66 1002.1
20260505231534 61 282 11.0 18.0 0.00 0.07 0.07 66 1002.0
20260505231016 61 275 9.0 18.0 0.00 0.07 0.07 66 1001.9
20260505230516 61 281 7.0 17.0 0.00 0.07 0.07 67 1001.7
20260505230040 62 306 8.0 17.0 0.00 0.07 0.07 67 1001.7
20260505225521 62 276 5.0 16.0 0.00 0.07 0.07 67 1001.4
20260505225019 62 294 8.0 16.0 0.00 0.07 0.07 66 1001.3
20260505224531 62 298 5.0 10.0 0.00 0.07 0.07 68 1001.2
20260505224016 62 288 6.0 12.0 0.00 0.07 0.07 68 1001.1
20260505223517 62 278 6.0 13.0 0.00 0.07 0.07 67 1001.1
20260505223031 62 294 6.0 13.0 0.00 0.07 0.07 67 1001.1
20260505222520 63 273 8.0 16.0 0.00 0.07 0.07 67 1001.0
20260505222016 63 298 5.0 16.0 0.00 0.07 0.07 68 1000.9
20260505221532 63 289 10.0 16.0 0.00 0.07 0.07 67 1000.9
20260505221016 63 275 7.0 11.0 0.00 0.07 0.07 67 1000.7
20260505220517 63 267 7.0 13.0 0.00 0.07 0.07 66 1000.5
20260505220046 63 311 7.0 13.0 0.00 0.07 0.07 67 1000.5
20260505215516 63 267 7.0 16.0 0.00 0.07 0.07 68 1000.3
20260505215016 63 290 9.0 16.0 0.00 0.07 0.07 66 1000.2
20260505214538 64 276 10.0 16.0 0.00 0.07 0.07 67 1000.1
20260505214015 64 273 8.0 16.0 0.00 0.07 0.07 68 1000.0
20260505213515 64 266 6.0 15.0 0.00 0.07 0.07 69 999.9
20260505213032 64 284 10.0 18.0 0.00 0.07 0.07 68 999.7
20260505212517 65 296 10.0 18.0 0.00 0.07 0.07 68 999.7
20260505212018 65 282 10.0 18.0 0.00 0.07 0.07 69 999.5
20260505211535 65 294 10.0 16.0 0.00 0.07 0.07 69 999.5
20260505211017 64 283 7.0 15.0 0.00 0.07 0.07 72 999.4
20260505210516 64 290 9.0 15.0 0.00 0.07 0.07 72 999.4
20260505210031 64 281 10.0 18.0 0.00 0.07 0.07 73 999.3
20260505205516 64 290 10.0 18.0 0.00 0.07 0.07 73 999.4
20260505205016 64 287 7.0 15.0 0.00 0.07 0.07 74 999.2
20260505204535 64 303 9.0 16.0 0.00 0.07 0.07 74 999.2
20260505204016 64 316 8.0 18.0 0.00 0.07 0.07 74 999.3
20260505203516 64 298 10.0 18.0 0.00 0.07 0.07 74 999.1
20260505203031 64 302 11.0 18.0 0.00 0.07 0.07 73 999.0
20260505202517 64 304 10.0 21.0 0.00 0.07 0.07 73 998.8
20260505202016 65 300 11.0 21.0 0.00 0.07 0.07 72 998.7
20260505201530 65 272 10.0 19.0 0.00 0.07 0.07 71 998.7
20260505201017 65 277 10.0 21.0 0.00 0.07 0.07 70 998.5
20260505200518 65 303 10.0 23.0 0.00 0.07 0.07 70 998.4
20260505200030 66 315 13.0 23.0 0.00 0.07 0.07 68 998.4
20260505195516 67 294 12.0 24.0 0.00 0.07 0.07 65 998.2
20260505195017 69 296 13.0 25.0 0.00 0.07 0.07 62 998.1
20260505194536 69 244 18.0 25.0 0.00 0.07 0.07 63 997.5
20260505194016 69 238 18.0 29.0 0.00 0.07 0.07 62 997.3
20260505193516 69 239 18.0 29.0 0.00 0.07 0.07 63 997.3
20260505193041 70 240 21.0 29.0 0.00 0.07 0.07 62 997.4
20260505192517 70 240 20.0 30.0 0.00 0.07 0.07 63 997.2
20260505192017 71 236 21.0 30.0 0.00 0.07 0.07 61 997.1
20260505191544 71 235 22.0 28.0 0.00 0.07 0.07 62 997.1
20260505191022 71 228 19.0 30.0 0.00 0.07 0.07 63 997.0
20260505190518 71 232 21.0 30.0 0.00 0.07 0.07 62 996.8
20260505190030 71 242 21.0 30.0 0.00 0.07 0.07 64 996.8
20260505185516 71 248 22.0 32.0 0.00 0.07 0.07 61 996.8
20260505185017 71 224 22.0 32.0 0.00 0.07 0.07 62 996.8
20260505184533 71 227 20.0 28.0 0.00 0.07 0.07 64 996.9
20260505184017 70 237 18.0 27.0 0.00 0.07 0.07 67 997.0
20260505183516 69 240 19.0 30.0 0.00 0.07 0.07 70 997.0
20260505183032 68 227 21.0 30.0 0.00 0.07 0.07 71 997.0
20260505182516 68 225 22.0 29.0 0.00 0.07 0.07 72 997.2
20260505182018 68 235 21.0 32.0 0.00 0.07 0.07 68 997.3
20260505181529 69 250 25.0 33.0 0.00 0.07 0.07 63 997.4
20260505181017 70 237 25.0 33.0 0.00 0.07 0.07 62 997.2
20260505180516 70 225 23.0 30.0 0.00 0.07 0.07 62 997.2
20260505180044 71 241 25.0 31.0 0.00 0.07 0.07 61 997.2
20260505175516 71 223 24.0 31.0 0.00 0.07 0.07 63 997.3
20260505175016 70 232 17.0 24.0 0.00 0.07 0.07 70 997.5
20260505174539 70 238 14.0 22.0 0.00 0.07 0.07 68 997.3
20260505174017 69 240 13.0 19.0 0.00 0.07 0.07 73 997.5
20260505173517 69 215 13.0 19.0 0.00 0.07 0.07 77 997.6
20260505173030 68 229 15.0 19.0 0.00 0.07 0.07 75 997.7
20260505172516 68 227 12.0 19.0 0.00 0.07 0.07 80 997.6
20260505172016 67 209 11.0 15.0 0.00 0.07 0.07 81 997.7
20260505171535 66 211 9.0 15.0 0.00 0.07 0.07 83 997.7
20260505171017 65 214 10.0 13.0 0.00 0.07 0.07 85 997.8
20260505170517 65 241 9.0 13.0 0.00 0.07 0.07 83 997.9
20260505170035 64 218 7.0 10.0 0.00 0.07 0.07 87 998.0
20260505165518 64 219 5.0 9.0 0.00 0.07 0.07 89 998.0
20260505165016 63 207 5.0 9.0 0.00 0.07 0.07 89 998.0
20260505164532 62 173 4.0 6.0 0.00 0.07 0.07 89 998.0
20260505164016 62 199 4.0 6.0 0.00 0.07 0.07 89 998.2
20260505163515 61 188 4.0 7.0 0.00 0.07 0.07 89 998.4
20260505163038 61 202 4.0 8.0 0.01 0.07 0.07 90 998.3
20260505162516 61 213 4.0 8.0 0.01 0.07 0.07 90 998.5
20260505162017 60 216 5.0 8.0 0.01 0.07 0.07 91 998.7
20260505161532 60 201 5.0 7.0 0.01 0.07 0.07 91 998.8
20260505161017 60 203 5.0 7.0 0.01 0.07 0.07 92 998.8
20260505160517 59 232 4.0 7.0 0.01 0.07 0.07 92 999.0
20260505153046 58 225 3.0 7.0 0.06 0.06 0.06 92 999.3
20260505152516 58 228 5.0 7.0 0.06 0.06 0.06 91 999.4
20260505152017 58 241 4.0 9.0 0.06 0.06 0.06 91 999.3
20260505151539 58 226 6.0 11.0 0.06 0.06 0.06 90 999.4
20260505151017 58 229 7.0 12.0 0.06 0.06 0.06 90 999.3
20260505150517 58 211 9.0 12.0 0.05 0.05 0.05 89 999.4
20260505140516 63 217 13.0 18.0 0.00 0.00 0.00 77 999.1